contact:dominique.lefevre@mio.osupytheas.fr, maurice.libes@osupytheas.fr, didier.mallarino@osupytheas.fr
Project:EMSO http://www.emso-fr.org/EMSO-France
Depth: 2436.0 m
Title:EMSO Ligure Ouest : Data MII capteur CSTAR
DateTime,Latitude,Longitude,Instrument_Serial,Reference_Counts,Signal_Counts,Corrected_Signal_raw_counts,Calculated_Beam_c_inverse_meters,Internal_thermistor_counts
DateTime,Latitude,Longitude,Instrument_Serial,Reference_Counts,Signal_Counts,Corrected_Signal_raw_counts,Calculated_Beam_c_inverse_meters,Internal_thermistor_counts
2023-02-27T00:00:30,42.805,6.029,CST-1368DR,4370,4730,11498,01.224,551
2023-02-27T00:03:31,42.805,6.029,CST-1368DR,4370,4735,11511,01.220,551
2023-02-27T00:06:33,42.805,6.029,CST-1368DR,4370,4747,11540,01.210,551
2023-02-27T00:09:34,42.805,6.029,CST-1368DR,4370,4729,11495,01.226,551
2023-02-27T00:12:36,42.805,6.029,CST-1368DR,4369,4718,11472,01.234,551
2023-02-27T00:15:37,42.805,6.029,CST-1368DR,4370,4725,11488,01.228,551
2023-02-27T00:18:39,42.805,6.029,CST-1368DR,4369,4719,11475,01.233,551
2023-02-27T00:21:41,42.805,6.029,CST-1368DR,4369,4714,11462,01.237,551
2023-02-27T00:24:42,42.805,6.029,CST-1368DR,4369,4720,11477,01.232,551
2023-02-27T00:27:44,42.805,6.029,CST-1368DR,4370,4730,11500,01.224,551
2023-02-27T00:30:45,42.805,6.029,CST-1368DR,4370,4735,11511,01.220,551
2023-02-27T00:33:47,42.805,6.029,CST-1368DR,4369,4726,11491,01.227,551
2023-02-27T00:36:48,42.805,6.029,CST-1368DR,4369,4723,11485,01.229,551
2023-02-27T00:39:50,42.805,6.029,CST-1368DR,4369,4716,11468,01.235,551
2023-02-27T00:42:52,42.805,6.029,CST-1368DR,4369,4728,11497,01.225,551
2023-02-27T00:45:53,42.805,6.029,CST-1368DR,4369,4712,11457,01.239,551
2023-02-27T00:48:55,42.805,6.029,CST-1368DR,4370,4732,11505,01.222,551
2023-02-27T00:51:56,42.805,6.029,CST-1368DR,4369,4720,11478,01.231,551
2023-02-27T00:54:58,42.805,6.029,CST-1368DR,4370,4736,11513,01.219,551
2023-02-27T00:57:59,42.805,6.029,CST-1368DR,4369,4723,11485,01.229,551
2023-02-27T01:01:01,42.805,6.029,CST-1368DR,4369,4736,11516,01.218,551
2023-02-27T01:04:03,42.805,6.029,CST-1368DR,4369,4722,11481,01.230,551
2023-02-27T01:07:04,42.805,6.029,CST-1368DR,4369,4731,11503,01.223,551
2023-02-27T01:10:06,42.805,6.029,CST-1368DR,4369,4732,11507,01.221,551
2023-02-27T01:13:07,42.805,6.029,CST-1368DR,4369,4736,11516,01.218,551
2023-02-27T01:16:09,42.805,6.029,CST-1368DR,4370,4742,11527,01.214,551
2023-02-27T01:19:11,42.805,6.029,CST-1368DR,4369,4736,11517,01.218,551
2023-02-27T01:22:12,42.805,6.029,CST-1368DR,4370,4742,11529,01.214,551
2023-02-27T01:25:14,42.805,6.029,CST-1368DR,4369,4729,11498,01.224,551
2023-02-27T01:28:15,42.805,6.029,CST-1368DR,4369,4738,11522,01.216,551
2023-02-27T01:31:17,42.805,6.029,CST-1368DR,4369,4740,11526,01.215,551
2023-02-27T01:34:18,42.805,6.029,CST-1368DR,4369,4715,11464,01.236,551
2023-02-27T01:37:20,42.805,6.029,CST-1368DR,4369,4738,11522,01.216,551
2023-02-27T01:40:22,42.805,6.029,CST-1368DR,4369,4723,11485,01.229,551
2023-02-27T01:43:23,42.805,6.029,CST-1368DR,4370,4741,11526,01.215,551
2023-02-27T01:46:25,42.805,6.029,CST-1368DR,4369,4730,11502,01.223,551
2023-02-27T01:49:26,42.805,6.029,CST-1368DR,4369,4736,11516,01.218,551
2023-02-27T01:52:28,42.805,6.029,CST-1368DR,4370,4735,11512,01.220,551
2023-02-27T01:55:30,42.805,6.029,CST-1368DR,4369,4733,11509,01.221,551
2023-02-27T01:58:31,42.805,6.029,CST-1368DR,4370,4739,11520,01.217,551
2023-02-27T02:01:33,42.805,6.029,CST-1368DR,4369,4732,11506,01.222,551
2023-02-27T02:04:34,42.805,6.029,CST-1368DR,4369,4738,11521,01.216,551
2023-02-27T02:07:36,42.805,6.029,CST-1368DR,4369,4734,11511,01.220,551
2023-02-27T02:10:37,42.805,6.029,CST-1368DR,4369,4733,11509,01.221,551
2023-02-27T02:13:39,42.805,6.029,CST-1368DR,4369,4735,11513,01.219,551
2023-02-27T02:16:41,42.805,6.029,CST-1368DR,4369,4736,11516,01.218,551
2023-02-27T02:19:42,42.805,6.029,CST-1368DR,4369,4739,11524,01.215,551
2023-02-27T02:22:44,42.805,6.029,CST-1368DR,4369,4735,11513,01.219,551
2023-02-27T02:25:45,42.805,6.029,CST-1368DR,4370,4737,11516,01.218,551
2023-02-27T02:28:47,42.805,6.029,CST-1368DR,4369,4737,11519,01.217,551
2023-02-27T02:31:48,42.805,6.029,CST-1368DR,4369,4740,11525,01.215,551
2023-02-27T02:34:50,42.805,6.029,CST-1368DR,4369,4735,11514,01.219,551
2023-02-27T02:37:52,42.805,6.029,CST-1368DR,4370,4734,11509,01.221,551
2023-02-27T02:40:53,42.805,6.029,CST-1368DR,4369,4727,11494,01.226,551
2023-02-27T02:43:55,42.805,6.029,CST-1368DR,4369,4737,11519,01.217,551
2023-02-27T02:46:56,42.805,6.029,CST-1368DR,4369,4734,11512,01.220,551
2023-02-27T02:49:58,42.805,6.029,CST-1368DR,4369,4735,11514,01.219,551
2023-02-27T02:52:59,42.805,6.029,CST-1368DR,4369,4735,11513,01.219,551
2023-02-27T02:56:01,42.805,6.029,CST-1368DR,4369,4739,11524,01.215,551
2023-02-27T02:59:03,42.805,6.029,CST-1368DR,4369,4729,11498,01.224,551
2023-02-27T03:02:04,42.805,6.029,CST-1368DR,4369,4732,11507,01.221,551
2023-02-27T03:05:06,42.805,6.029,CST-1368DR,4369,4734,11510,01.220,551
2023-02-27T03:08:07,42.805,6.029,CST-1368DR,4369,4733,11508,01.221,551
2023-02-27T03:11:09,42.805,6.029,CST-1368DR,4369,4736,11517,01.218,551
2023-02-27T03:14:11,42.805,6.029,CST-1368DR,4369,4735,11514,01.219,551
2023-02-27T03:17:12,42.805,6.029,CST-1368DR,4369,4729,11498,01.224,551
2023-02-27T03:20:14,42.805,6.029,CST-1368DR,4369,4729,11499,01.224,551
2023-02-27T03:23:15,42.805,6.029,CST-1368DR,4369,4740,11527,01.214,551
2023-02-27T03:26:17,42.805,6.029,CST-1368DR,4369,4735,11513,01.219,551
2023-02-27T03:29:18,42.805,6.029,CST-1368DR,4369,4737,11517,01.218,551
2023-02-27T03:32:20,42.805,6.029,CST-1368DR,4369,4730,11501,01.223,551
2023-02-27T03:35:22,42.805,6.029,CST-1368DR,4369,4721,11479,01.231,551
2023-02-27T03:38:23,42.805,6.029,CST-1368DR,4369,4724,11486,01.229,551
2023-02-27T03:41:25,42.805,6.029,CST-1368DR,4369,4732,11505,01.222,551
2023-02-27T03:44:26,42.805,6.029,CST-1368DR,4369,4717,11471,01.234,551
2023-02-27T03:47:28,42.805,6.029,CST-1368DR,4369,4719,11474,01.233,551
2023-02-27T03:50:29,42.805,6.029,CST-1368DR,4369,4721,11478,01.231,551
2023-02-27T03:53:31,42.805,6.029,CST-1368DR,4369,4718,11472,01.234,551
2023-02-27T03:56:33,42.805,6.029,CST-1368DR,4369,4715,11465,01.236,551
2023-02-27T03:59:34,42.805,6.029,CST-1368DR,4369,4721,11479,01.231,551
2023-02-27T04:02:36,42.805,6.029,CST-1368DR,4369,4741,11528,01.214,551
2023-02-27T04:05:37,42.805,6.029,CST-1368DR,4369,4725,11488,01.228,551
2023-02-27T04:08:39,42.805,6.029,CST-1368DR,4369,4724,11486,01.229,551
2023-02-27T04:11:41,42.805,6.029,CST-1368DR,4369,4716,11466,01.236,551
2023-02-27T04:14:42,42.805,6.029,CST-1368DR,4369,4714,11463,01.237,551
2023-02-27T04:17:44,42.805,6.029,CST-1368DR,4369,4720,11477,01.232,551
2023-02-27T04:20:45,42.805,6.029,CST-1368DR,4369,4716,11468,01.235,551
2023-02-27T04:23:47,42.805,6.029,CST-1368DR,4369,4713,11460,01.238,551
2023-02-27T04:26:48,42.805,6.029,CST-1368DR,4369,4718,11473,01.233,551
2023-02-27T04:29:50,42.805,6.029,CST-1368DR,4369,4711,11456,01.239,551
2023-02-27T04:32:52,42.805,6.029,CST-1368DR,4369,4712,11457,01.239,551
2023-02-27T04:35:53,42.805,6.029,CST-1368DR,4369,4718,11473,01.233,551
2023-02-27T04:38:55,42.805,6.029,CST-1368DR,4369,4706,11444,01.243,551
2023-02-27T04:41:56,42.805,6.029,CST-1368DR,4369,4717,11469,01.235,551
2023-02-27T04:44:58,42.805,6.029,CST-1368DR,4369,4709,11451,01.241,551
2023-02-27T04:47:59,42.805,6.029,CST-1368DR,4369,4716,11468,01.235,551
2023-02-27T04:51:01,42.805,6.029,CST-1368DR,4369,4711,11456,01.239,551
2023-02-27T04:54:03,42.805,6.029,CST-1368DR,4369,4719,11475,01.233,551
2023-02-27T04:57:04,42.805,6.029,CST-1368DR,4369,4721,11480,01.231,551
2023-02-27T05:00:06,42.805,6.029,CST-1368DR,4369,4725,11489,01.228,551
2023-02-27T05:03:07,42.805,6.029,CST-1368DR,4369,4716,11467,01.235,551
2023-02-27T05:06:09,42.805,6.029,CST-1368DR,4369,4717,11469,01.235,551
2023-02-27T05:09:11,42.805,6.029,CST-1368DR,4369,4720,11477,01.232,551
2023-02-27T05:12:12,42.805,6.029,CST-1368DR,4369,4723,11484,01.229,551
2023-02-27T05:15:14,42.805,6.029,CST-1368DR,4369,4719,11474,01.233,551
2023-02-27T05:18:15,42.805,6.029,CST-1368DR,4369,4719,11474,01.233,551
2023-02-27T05:21:17,42.805,6.029,CST-1368DR,4369,4719,11474,01.233,551
2023-02-27T05:24:18,42.805,6.029,CST-1368DR,4369,4720,11478,01.231,551
2023-02-27T05:27:20,42.805,6.029,CST-1368DR,4369,4725,11488,01.228,551
2023-02-27T05:30:22,42.805,6.029,CST-1368DR,4369,4729,11499,01.224,551
2023-02-27T05:33:23,42.805,6.029,CST-1368DR,4369,4721,11478,01.231,551
2023-02-27T05:36:25,42.805,6.029,CST-1368DR,4369,4723,11485,01.229,551
2023-02-27T05:39:26,42.805,6.029,CST-1368DR,4369,4727,11494,01.226,551
2023-02-27T05:42:28,42.805,6.029,CST-1368DR,4369,4720,11478,01.231,551
2023-02-27T05:45:29,42.805,6.029,CST-1368DR,4369,4721,11479,01.231,551
2023-02-27T05:48:31,42.805,6.029,CST-1368DR,4369,4723,11485,01.229,551
2023-02-27T05:51:33,42.805,6.029,CST-1368DR,4369,4718,11473,01.233,551
2023-02-27T05:54:34,42.805,6.029,CST-1368DR,4369,4727,11495,01.226,551
2023-02-27T05:57:36,42.805,6.029,CST-1368DR,4369,4721,11479,01.231,551
2023-02-27T06:00:37,42.805,6.029,CST-1368DR,4369,4721,11478,01.231,551
2023-02-27T06:03:39,42.805,6.029,CST-1368DR,4369,4742,11531,01.213,551
2023-02-27T06:06:41,42.805,6.029,CST-1368DR,4369,4730,11502,01.223,551
2023-02-27T06:09:42,42.805,6.029,CST-1368DR,4369,4740,11526,01.215,551
2023-02-27T06:12:44,42.805,6.029,CST-1368DR,4369,4719,11475,01.233,551
2023-02-27T06:15:45,42.805,6.029,CST-1368DR,4369,4733,11508,01.221,551
2023-02-27T06:18:47,42.805,6.029,CST-1368DR,4369,4712,11458,01.238,551
2023-02-27T06:21:48,42.805,6.029,CST-1368DR,4369,4716,11466,01.236,551
2023-02-27T06:24:50,42.805,6.029,CST-1368DR,4369,4725,11489,01.228,551
2023-02-27T06:27:52,42.805,6.029,CST-1368DR,4369,4719,11475,01.233,551
2023-02-27T06:30:53,42.805,6.029,CST-1368DR,4369,4721,11479,01.231,551
2023-02-27T06:33:55,42.805,6.029,CST-1368DR,4369,4727,11494,01.226,551
2023-02-27T06:36:56,42.805,6.029,CST-1368DR,4369,4725,11489,01.228,551
2023-02-27T06:39:58,42.805,6.029,CST-1368DR,4369,4726,11491,01.227,551
2023-02-27T06:42:59,42.805,6.029,CST-1368DR,4369,4729,11499,01.224,551
2023-02-27T06:46:01,42.805,6.029,CST-1368DR,4369,4730,11501,01.223,551
2023-02-27T06:49:03,42.805,6.029,CST-1368DR,4369,4722,11483,01.230,551
2023-02-27T06:52:04,42.805,6.029,CST-1368DR,4369,4718,11473,01.233,551
2023-02-27T06:55:06,42.805,6.029,CST-1368DR,4369,4720,11477,01.232,551
2023-02-27T06:58:07,42.805,6.029,CST-1368DR,4369,4725,11488,01.228,551
2023-02-27T07:01:09,42.805,6.029,CST-1368DR,4369,4735,11514,01.219,551
2023-02-27T07:04:10,42.805,6.029,CST-1368DR,4369,4724,11486,01.229,551
2023-02-27T07:07:12,42.805,6.029,CST-1368DR,4369,4720,11476,01.232,551
2023-02-27T07:10:14,42.805,6.029,CST-1368DR,4369,4723,11484,01.229,551
2023-02-27T07:13:15,42.805,6.029,CST-1368DR,4369,4728,11497,01.225,551
2023-02-27T07:16:17,42.805,6.029,CST-1368DR,4369,4720,11477,01.232,551
2023-02-27T07:19:18,42.805,6.029,CST-1368DR,4369,4723,11485,01.229,551
2023-02-27T07:22:20,42.805,6.029,CST-1368DR,4369,4742,11530,01.213,551
2023-02-27T07:25:21,42.805,6.029,CST-1368DR,4369,4727,11494,01.226,551
2023-02-27T07:28:23,42.805,6.029,CST-1368DR,4369,4719,11475,01.233,551
2023-02-27T07:31:25,42.805,6.029,CST-1368DR,4369,4730,11502,01.223,551
2023-02-27T07:34:26,42.805,6.029,CST-1368DR,4369,4733,11508,01.221,551
2023-02-27T07:37:28,42.805,6.029,CST-1368DR,4369,4730,11500,01.224,551
2023-02-27T07:40:29,42.805,6.029,CST-1368DR,4369,4723,11484,01.229,551
2023-02-27T07:43:31,42.805,6.029,CST-1368DR,4369,4730,11502,01.223,551
2023-02-27T07:46:33,42.805,6.029,CST-1368DR,4369,4720,11477,01.232,551
2023-02-27T07:49:34,42.805,6.029,CST-1368DR,4369,4722,11481,01.230,551
2023-02-27T07:52:36,42.805,6.029,CST-1368DR,4369,4720,11478,01.231,551
2023-02-27T07:55:37,42.805,6.029,CST-1368DR,4369,4740,11527,01.214,551
2023-02-27T07:58:39,42.805,6.029,CST-1368DR,4369,4721,11480,01.231,551
2023-02-27T08:01:40,42.805,6.029,CST-1368DR,4369,4727,11493,01.226,551
2023-02-27T08:04:42,42.805,6.029,CST-1368DR,4369,4723,11483,01.230,551
2023-02-27T08:07:44,42.805,6.029,CST-1368DR,4369,4711,11455,01.239,551
2023-02-27T08:10:45,42.805,6.029,CST-1368DR,4369,4716,11467,01.235,551
2023-02-27T08:13:47,42.805,6.029,CST-1368DR,4369,4716,11468,01.235,551
2023-02-27T08:16:48,42.805,6.029,CST-1368DR,4369,4723,11485,01.229,551
2023-02-27T08:19:50,42.805,6.029,CST-1368DR,4369,4719,11475,01.233,551
2023-02-27T08:22:51,42.805,6.029,CST-1368DR,4369,4730,11502,01.223,551
2023-02-27T08:25:53,42.805,6.029,CST-1368DR,4369,4724,11487,01.228,551
2023-02-27T08:28:55,42.805,6.029,CST-1368DR,4369,4721,11479,01.231,551
2023-02-27T08:31:56,42.805,6.029,CST-1368DR,4369,4730,11502,01.223,551
2023-02-27T08:34:58,42.805,6.029,CST-1368DR,4369,4725,11489,01.228,551
2023-02-27T08:37:59,42.805,6.029,CST-1368DR,4369,4722,11482,01.230,551
2023-02-27T08:41:01,42.805,6.029,CST-1368DR,4369,4722,11481,01.230,551
2023-02-27T08:44:03,42.805,6.029,CST-1368DR,4369,4719,11475,01.233,551
2023-02-27T08:47:04,42.805,6.029,CST-1368DR,4369,4720,11478,01.231,551
2023-02-27T08:50:06,42.805,6.029,CST-1368DR,4369,4730,11502,01.223,551
2023-02-27T08:53:07,42.805,6.029,CST-1368DR,4369,4709,11449,01.242,551
2023-02-27T08:56:09,42.805,6.029,CST-1368DR,4369,4719,11474,01.233,551
2023-02-27T08:59:10,42.805,6.029,CST-1368DR,4369,4719,11475,01.233,551
2023-02-27T09:02:12,42.805,6.029,CST-1368DR,4369,4727,11495,01.226,551
2023-02-27T09:05:14,42.805,6.029,CST-1368DR,4369,4715,11465,01.236,551
2023-02-27T09:08:15,42.805,6.029,CST-1368DR,4369,4723,11485,01.229,551
2023-02-27T09:11:17,42.805,6.029,CST-1368DR,4369,4724,11487,01.228,551
2023-02-27T09:14:18,42.805,6.029,CST-1368DR,4369,4719,11474,01.233,551
2023-02-27T09:17:20,42.805,6.029,CST-1368DR,4369,4713,11460,01.238,551
2023-02-27T09:20:21,42.805,6.029,CST-1368DR,4369,4717,11469,01.235,551
2023-02-27T09:23:23,42.805,6.029,CST-1368DR,4369,4735,11514,01.219,551
2023-02-27T09:26:25,42.805,6.029,CST-1368DR,4369,4717,11470,01.234,551
2023-02-27T09:29:26,42.805,6.029,CST-1368DR,4369,4722,11483,01.230,551
2023-02-27T09:32:28,42.805,6.029,CST-1368DR,4369,4717,11469,01.235,551
2023-02-27T09:35:29,42.805,6.029,CST-1368DR,4369,4717,11471,01.234,551
2023-02-27T09:38:31,42.805,6.029,CST-1368DR,4369,4719,11474,01.233,551
2023-02-27T09:41:33,42.805,6.029,CST-1368DR,4369,4715,11465,01.236,551
2023-02-27T09:44:34,42.805,6.029,CST-1368DR,4369,4721,11479,01.231,551
2023-02-27T09:47:36,42.805,6.029,CST-1368DR,4369,4714,11462,01.237,551
2023-02-27T09:50:37,42.805,6.029,CST-1368DR,4369,4718,11473,01.233,551
2023-02-27T09:53:39,42.805,6.029,CST-1368DR,4369,4721,11479,01.231,551
2023-02-27T09:56:40,42.805,6.029,CST-1368DR,4369,4722,11482,01.230,551
2023-02-27T09:59:42,42.805,6.029,CST-1368DR,4369,4714,11462,01.237,551
2023-02-27T10:02:44,42.805,6.029,CST-1368DR,4369,4722,11481,01.230,551
2023-02-27T10:05:45,42.805,6.029,CST-1368DR,4369,4740,11527,01.214,551
2023-02-27T10:08:47,42.805,6.029,CST-1368DR,4369,4741,11527,01.214,551
2023-02-27T10:11:48,42.805,6.029,CST-1368DR,4369,4756,11565,01.201,551
2023-02-27T10:14:50,42.805,6.029,CST-1368DR,4369,4754,11559,01.203,551
2023-02-27T10:17:51,42.805,6.029,CST-1368DR,4369,4758,11568,01.200,551
2023-02-27T10:20:53,42.805,6.029,CST-1368DR,4369,4753,11558,01.204,551
2023-02-27T10:23:55,42.805,6.029,CST-1368DR,4369,4755,11561,01.203,551
2023-02-27T10:26:56,42.805,6.029,CST-1368DR,4369,4751,11552,01.206,551
2023-02-27T10:29:58,42.805,6.029,CST-1368DR,4369,4758,11570,01.200,551
2023-02-27T10:32:59,42.805,6.029,CST-1368DR,4369,4749,11548,01.207,551
2023-02-27T10:36:01,42.805,6.029,CST-1368DR,4369,4747,11543,01.209,551
2023-02-27T10:39:03,42.805,6.029,CST-1368DR,4369,4738,11522,01.216,551
2023-02-27T10:42:04,42.805,6.029,CST-1368DR,4369,4741,11528,01.214,551
2023-02-27T10:45:06,42.805,6.029,CST-1368DR,4369,4739,11522,01.216,551
2023-02-27T10:48:07,42.805,6.029,CST-1368DR,4369,4753,11556,01.204,551
2023-02-27T10:51:09,42.805,6.029,CST-1368DR,4369,4752,11554,01.205,551
2023-02-27T10:54:10,42.805,6.029,CST-1368DR,4369,4749,11547,01.207,551
2023-02-27T10:57:12,42.805,6.029,CST-1368DR,4369,4748,11544,01.209,551
2023-02-27T11:00:14,42.805,6.029,CST-1368DR,4369,4748,11545,01.208,551
2023-02-27T11:03:15,42.805,6.029,CST-1368DR,4369,4749,11547,01.207,551
2023-02-27T11:06:17,42.805,6.029,CST-1368DR,4369,4750,11550,01.206,551
2023-02-27T11:09:18,42.805,6.029,CST-1368DR,4369,4741,11527,01.214,551
2023-02-27T11:12:20,42.805,6.029,CST-1368DR,4369,4749,11548,01.207,551
2023-02-27T11:15:21,42.805,6.029,CST-1368DR,4369,4743,11534,01.212,551
2023-02-27T11:18:23,42.805,6.029,CST-1368DR,4369,4746,11540,01.210,551
2023-02-27T11:21:25,42.805,6.029,CST-1368DR,4369,4753,11556,01.204,551
2023-02-27T11:24:26,42.805,6.029,CST-1368DR,4369,4745,11538,01.211,551
2023-02-27T11:27:28,42.805,6.029,CST-1368DR,4369,4744,11536,01.211,551
2023-02-27T11:30:29,42.805,6.029,CST-1368DR,4369,4739,11522,01.216,551
2023-02-27T11:33:31,42.805,6.029,CST-1368DR,4369,4746,11539,01.210,551
2023-02-27T11:36:32,42.805,6.029,CST-1368DR,4369,4737,11519,01.217,551
2023-02-27T11:39:34,42.805,6.029,CST-1368DR,4369,4747,11542,01.209,551
2023-02-27T11:42:36,42.805,6.029,CST-1368DR,4369,4748,11545,01.208,551
2023-02-27T11:45:37,42.805,6.029,CST-1368DR,4369,4753,11556,01.204,551
2023-02-27T11:48:39,42.805,6.029,CST-1368DR,4369,4743,11533,01.212,551
2023-02-27T11:51:40,42.805,6.029,CST-1368DR,4369,4746,11539,01.210,551
2023-02-27T11:54:42,42.805,6.029,CST-1368DR,4369,4749,11548,01.207,551
2023-02-27T11:57:44,42.805,6.029,CST-1368DR,4369,4749,11547,01.207,551
2023-02-27T12:00:45,42.805,6.029,CST-1368DR,4369,4746,11541,01.210,551
2023-02-27T12:03:47,42.805,6.029,CST-1368DR,4369,4751,11553,01.205,551
2023-02-27T12:06:48,42.805,6.029,CST-1368DR,4369,4741,11527,01.214,551
2023-02-27T12:09:50,42.805,6.029,CST-1368DR,4369,4744,11536,01.211,551
2023-02-27T12:12:51,42.805,6.029,CST-1368DR,4369,4741,11528,01.214,551
2023-02-27T12:15:53,42.805,6.029,CST-1368DR,4369,4743,11534,01.212,551
2023-02-27T12:18:55,42.805,6.029,CST-1368DR,4369,4745,11538,01.211,551
2023-02-27T12:21:56,42.805,6.029,CST-1368DR,4369,4748,11544,01.209,551
2023-02-27T12:24:58,42.805,6.029,CST-1368DR,4369,4749,11548,01.207,551
2023-02-27T12:27:59,42.805,6.029,CST-1368DR,4369,4747,11544,01.209,551
2023-02-27T12:31:01,42.805,6.029,CST-1368DR,4369,4737,11519,01.217,551
2023-02-27T12:34:02,42.805,6.029,CST-1368DR,4369,4744,11535,01.212,551
2023-02-27T12:37:04,42.805,6.029,CST-1368DR,4369,4740,11526,01.215,551
2023-02-27T12:40:06,42.805,6.029,CST-1368DR,4369,4747,11544,01.209,551
2023-02-27T12:43:07,42.805,6.029,CST-1368DR,4369,4750,11549,01.207,551
2023-02-27T12:46:09,42.805,6.029,CST-1368DR,4369,4745,11538,01.211,551
2023-02-27T12:49:10,42.805,6.029,CST-1368DR,4369,4744,11536,01.211,551
2023-02-27T12:52:12,42.805,6.029,CST-1368DR,4369,4746,11540,01.210,551
2023-02-27T12:55:13,42.805,6.029,CST-1368DR,4369,4744,11536,01.211,551
2023-02-27T12:58:15,42.805,6.029,CST-1368DR,4369,4737,11519,01.217,551
2023-02-27T13:01:17,42.805,6.029,CST-1368DR,4369,4741,11528,01.214,551
2023-02-27T13:04:18,42.805,6.029,CST-1368DR,4369,4742,11531,01.213,551
2023-02-27T13:07:20,42.805,6.029,CST-1368DR,4369,4742,11531,01.213,551
2023-02-27T13:10:21,42.805,6.029,CST-1368DR,4369,4744,11536,01.211,551
2023-02-27T13:13:23,42.805,6.029,CST-1368DR,4369,4742,11531,01.213,551
2023-02-27T13:16:25,42.805,6.029,CST-1368DR,4369,4744,11535,01.212,551
2023-02-27T13:19:26,42.805,6.029,CST-1368DR,4369,4742,11531,01.213,551
2023-02-27T13:22:28,42.805,6.029,CST-1368DR,4369,4745,11538,01.211,551
2023-02-27T13:25:29,42.805,6.029,CST-1368DR,4369,4742,11531,01.213,551
2023-02-27T13:28:31,42.805,6.029,CST-1368DR,4369,4747,11542,01.209,551
2023-02-27T13:31:32,42.805,6.029,CST-1368DR,4369,4743,11533,01.212,551
2023-02-27T13:34:34,42.805,6.029,CST-1368DR,4369,4744,11534,01.212,551
2023-02-27T13:37:36,42.805,6.029,CST-1368DR,4369,4744,11535,01.212,551
2023-02-27T13:40:37,42.805,6.029,CST-1368DR,4369,4739,11522,01.216,551
2023-02-27T13:43:39,42.805,6.029,CST-1368DR,4369,4747,11542,01.209,551
2023-02-27T13:46:40,42.805,6.029,CST-1368DR,4369,4744,11535,01.212,551
2023-02-27T13:49:42,42.805,6.029,CST-1368DR,4369,4760,11575,01.198,551
2023-02-27T13:52:43,42.805,6.029,CST-1368DR,4369,4743,11533,01.212,551
2023-02-27T13:55:45,42.805,6.029,CST-1368DR,4369,4732,11507,01.221,551
2023-02-27T13:58:47,42.805,6.029,CST-1368DR,4369,4743,11533,01.212,551
2023-02-27T14:01:48,42.805,6.029,CST-1368DR,4369,4742,11531,01.213,551
2023-02-27T14:04:50,42.805,6.029,CST-1368DR,4369,4745,11537,01.211,551
2023-02-27T14:07:51,42.805,6.029,CST-1368DR,4369,4744,11536,01.211,551
2023-02-27T14:10:53,42.805,6.029,CST-1368DR,4369,4745,11537,01.211,551
2023-02-27T14:13:55,42.805,6.029,CST-1368DR,4369,4742,11531,01.213,551
2023-02-27T14:16:56,42.805,6.029,CST-1368DR,4369,4743,11532,01.213,551
2023-02-27T14:19:58,42.805,6.029,CST-1368DR,4369,4741,11528,01.214,551
2023-02-27T14:22:59,42.805,6.029,CST-1368DR,4369,4745,11538,01.211,551
2023-02-27T14:26:01,42.805,6.029,CST-1368DR,4369,4740,11526,01.215,551
2023-02-27T14:29:02,42.805,6.029,CST-1368DR,4369,4746,11540,01.210,551
2023-02-27T14:32:04,42.805,6.029,CST-1368DR,4369,4746,11539,01.210,551
2023-02-27T14:35:06,42.805,6.029,CST-1368DR,4369,4745,11537,01.211,551
2023-02-27T14:38:07,42.805,6.029,CST-1368DR,4369,4745,11539,01.210,551
2023-02-27T14:41:09,42.805,6.029,CST-1368DR,4369,4746,11539,01.210,551
2023-02-27T14:44:10,42.805,6.029,CST-1368DR,4369,4743,11533,01.212,551
2023-02-27T14:47:12,42.805,6.029,CST-1368DR,4369,4741,11528,01.214,551
2023-02-27T14:50:13,42.805,6.029,CST-1368DR,4369,4747,11544,01.209,551
2023-02-27T14:53:15,42.805,6.029,CST-1368DR,4369,4748,11545,01.208,551
2023-02-27T14:56:17,42.805,6.029,CST-1368DR,4369,4745,11537,01.211,551
2023-02-27T14:59:18,42.805,6.029,CST-1368DR,4369,4744,11534,01.212,551
2023-02-27T15:02:20,42.805,6.029,CST-1368DR,4369,4736,11517,01.218,551
2023-02-27T15:05:21,42.805,6.029,CST-1368DR,4369,4739,11524,01.215,551
2023-02-27T15:08:23,42.805,6.029,CST-1368DR,4369,4741,11528,01.214,551
2023-02-27T15:11:25,42.805,6.029,CST-1368DR,4369,4744,11534,01.212,551
2023-02-27T15:14:26,42.805,6.029,CST-1368DR,4369,4745,11538,01.211,551
2023-02-27T15:17:28,42.805,6.029,CST-1368DR,4369,4744,11535,01.212,551
2023-02-27T15:20:29,42.805,6.029,CST-1368DR,4369,4743,11532,01.213,551
2023-02-27T15:23:31,42.805,6.029,CST-1368DR,4369,4745,11539,01.210,551
2023-02-27T15:26:32,42.805,6.029,CST-1368DR,4369,4746,11540,01.210,551
2023-02-27T15:29:34,42.805,6.029,CST-1368DR,4369,4743,11534,01.212,551
2023-02-27T15:32:36,42.805,6.029,CST-1368DR,4369,4746,11541,01.210,551
2023-02-27T15:35:37,42.805,6.029,CST-1368DR,4369,4746,11539,01.210,551
2023-02-27T15:38:39,42.805,6.029,CST-1368DR,4369,4746,11540,01.210,551
2023-02-27T15:41:40,42.805,6.029,CST-1368DR,4369,4746,11539,01.210,551
2023-02-27T15:44:42,42.805,6.029,CST-1368DR,4369,4746,11540,01.210,551
2023-02-27T15:47:43,42.805,6.029,CST-1368DR,4369,4750,11550,01.206,551
2023-02-27T15:50:45,42.805,6.029,CST-1368DR,4369,4746,11541,01.210,551
2023-02-27T15:53:47,42.805,6.029,CST-1368DR,4369,4745,11539,01.210,551
2023-02-27T15:56:48,42.805,6.029,CST-1368DR,4369,4746,11540,01.210,551
2023-02-27T15:59:50,42.805,6.029,CST-1368DR,4369,4747,11542,01.209,551
2023-02-27T16:02:51,42.805,6.029,CST-1368DR,4369,4746,11541,01.210,551
2023-02-27T16:05:53,42.805,6.029,CST-1368DR,4369,4745,11538,01.211,551
2023-02-27T16:08:55,42.805,6.029,CST-1368DR,4369,4745,11537,01.211,551
2023-02-27T16:11:56,42.805,6.029,CST-1368DR,4369,4742,11531,01.213,551
2023-02-27T16:14:58,42.805,6.029,CST-1368DR,4369,4758,11569,01.200,551
2023-02-27T16:17:59,42.805,6.029,CST-1368DR,4369,4758,11568,01.200,551
2023-02-27T16:21:01,42.805,6.029,CST-1368DR,4369,4756,11564,01.202,551
2023-02-27T16:24:02,42.805,6.029,CST-1368DR,4369,4756,11564,01.202,551
2023-02-27T16:27:04,42.805,6.029,CST-1368DR,4369,4753,11556,01.204,551
2023-02-27T16:30:06,42.805,6.029,CST-1368DR,4369,4752,11554,01.205,551
2023-02-27T16:33:07,42.805,6.029,CST-1368DR,4369,4749,11548,01.207,551
2023-02-27T16:36:09,42.805,6.029,CST-1368DR,4369,4751,11552,01.206,551